Montpelier, VT

5:55 AM EST on December 14, 2017 (GMT -0500)
Knapp State

Weather History for KMPV - April, 2013

Change the Weather History Date:

Thursday, April 11, 2013

  Actual Average Record
Temperature  
Mean Temperature 35 °F 40 °F  
Max Temperature 39 °F 51 °F 77 °F (2017)
Min Temperature 31 °F 30 °F 15 °F (1989)
Degree Days  
Heating Degree Days 30 25  
Month to date heating degree days 320 295  
Since 1 July heating degree days 6933 7320  
Cooling Degree Days 0 0  
Month to date cooling degree days 0 0  
Year to date cooling degree days 0 0  
Moisture  
Dew Point 26 °F    
Average Humidity 70    
Maximum Humidity 100    
Minimum Humidity 40    
Precipitation  
Precipitation 0.00 in 0.09 in 1.09 in (1992)
Month to date precipitation 0.49 0.94  
Year to date precipitation 3.62 7.82  
Sea Level Pressure  
Sea Level Pressure 30.07 in    
Wind  
Wind Speed 7 mph (NNW)    
Max Wind Speed 13 mph    
Max Gust Speed 18 mph    
Visibility 8 miles    
Events      
T = Trace of Precipitation, MM = Missing Value Source: NWS Daily Summary

Daily Weather History Graph

Daily Weather History Graph

Search for Another Location

Airport or City:

Trip Planner

Search our weather history database for the weather conditions in past years. The results will help you decide how hot, cold, wet, or windy it might be!

Date:

Astronomy

Apr. 11, 2013 Rise Set
Actual Time 6:13 AM EDT 7:29 PM EDT
Civil Twilight 5:43 AM EDT 7:59 PM EDT
Nautical Twilight 5:07 AM EDT 8:35 PM EDT
Astronomical Twilight 4:29 AM EDT 9:14 PM EDT
Moon 6:40 AM EDT (4/11) 9:05 PM EDT (4/11)
Length of Visible Light 14h 16m
Length of Day
13h 16m
New Moon, 2% of the Moon is Illuminated
Apr 11
New Moon
Apr 18
First Quarter
Apr 25
Full
May 2
Last Quarter
May 9
New

Hourly Weather History & Observations

Time (EDT) Temp. Windchill Dew Point Humidity Pressure Visibility Wind Dir Wind Speed Gust Speed Precip Events Conditions
12:01 AM 37.4 °F - 37.4 °F 100% 29.95 in 2.0 mi Calm Calm - N/A   Overcast
12:11 AM 39.2 °F - 39.2 °F 100% 29.95 in 3.0 mi Calm Calm - N/A   Overcast
12:35 AM 39.2 °F - 39.2 °F 100% 29.96 in 2.5 mi Calm Calm - N/A   Overcast
12:46 AM 37.4 °F - 37.4 °F 100% 29.96 in 3.0 mi Calm Calm - N/A   Overcast
12:51 AM 39.0 °F 36.8 °F 39.0 °F 100% 29.99 in 5.0 mi West 3.5 mph - N/A   Overcast
1:51 AM 39.0 °F - 37.9 °F 96% 29.97 in 8.0 mi Calm Calm - N/A   Overcast
2:48 AM 37.4 °F - 37.4 °F 100% 29.94 in 1.5 mi Calm Calm - N/A   Overcast
2:51 AM 37.9 °F - 37.9 °F 100% 29.97 in 1.0 mi Calm Calm - N/A   Overcast
2:57 AM 37.4 °F - 37.4 °F 100% 29.93 in 1.5 mi Calm Calm - N/A   Overcast
2:59 AM 37.4 °F - 37.4 °F 100% 29.93 in 3.0 mi Calm Calm - N/A   Overcast
3:09 AM 37.4 °F - 37.4 °F 100% 29.93 in 5.0 mi Calm Calm - N/A   Overcast
3:51 AM 37.0 °F 32.4 °F 37.0 °F 100% 29.97 in 6.0 mi NW 5.8 mph - N/A   Overcast
4:51 AM 34.0 °F 28.0 °F 33.1 °F 96% 30.00 in 9.0 mi NNW 6.9 mph - N/A   Clear
5:32 AM 32.0 °F 25.6 °F 30.2 °F 93% 29.99 in 10.0 mi NW 6.9 mph - N/A   Mostly Cloudy
5:51 AM 32.0 °F 24.8 °F 32.0 °F 100% 30.03 in 9.0 mi NNW 8.1 mph - N/A   Overcast
6:51 AM 30.9 °F 24.3 °F 28.9 °F 92% 30.08 in 10.0 mi NNW 6.9 mph - N/A   Mostly Cloudy
6:59 AM 30.2 °F 22.6 °F 24.8 °F 80% 30.04 in 10.0 mi North 8.1 mph - N/A   Scattered Clouds
7:51 AM 30.9 °F 24.3 °F 19.9 °F 64% 30.10 in 10.0 mi NNE 6.9 mph - N/A   Mostly Cloudy
8:20 AM 33.8 °F 27.0 °F 21.2 °F 60% 30.06 in 10.0 mi NNE 8.1 mph - N/A   Mostly Cloudy
8:51 AM 33.1 °F 27.7 °F 19.9 °F 59% 30.10 in 10.0 mi NNE 5.8 mph - N/A   Clear
9:51 AM 35.6 °F 29.2 °F 19.4 °F 52% 30.06 in 10.0 mi North 8.1 mph - N/A   Clear
10:51 AM 37.0 °F 33.3 °F 18.0 °F 46% 30.11 in 10.0 mi North 4.6 mph - N/A   Clear
11:51 AM 37.9 °F 31.5 °F 17.1 °F 43% 30.14 in 10.0 mi NNW 9.2 mph - N/A   Scattered Clouds
12:51 PM 37.0 °F 31.0 °F 16.0 °F 42% 30.16 in 10.0 mi NW 8.1 mph - N/A   Overcast
1:51 PM 37.0 °F 30.4 °F 16.0 °F 42% 30.17 in 10.0 mi WNW 9.2 mph - N/A   Overcast
2:51 PM 37.0 °F 30.4 °F 17.1 °F 44% 30.14 in 10.0 mi NNW 9.2 mph - N/A   Overcast
3:51 PM 37.0 °F 30.4 °F 17.1 °F 44% 30.14 in 10.0 mi NW 9.2 mph - N/A   Overcast
4:51 PM 37.0 °F 29.3 °F 15.1 °F 41% 30.17 in 10.0 mi North 11.5 mph - N/A   Overcast
5:51 PM 37.0 °F 31.0 °F 16.0 °F 42% 30.17 in 10.0 mi NNW 8.1 mph - N/A   Mostly Cloudy
6:51 PM 35.1 °F 29.3 °F 16.0 °F 46% 30.18 in 10.0 mi North 6.9 mph - N/A   Scattered Clouds
7:51 PM 34.0 °F 28.8 °F 15.1 °F 46% 30.19 in 10.0 mi NNE 5.8 mph - N/A   Overcast
8:51 PM 33.1 °F 28.7 °F 15.1 °F 48% 30.22 in 10.0 mi North 4.6 mph - N/A   Overcast
9:51 PM 33.1 °F 27.7 °F 16.0 °F 50% 30.22 in 10.0 mi North 5.8 mph - N/A   Partly Cloudy
10:51 PM 32.0 °F 25.6 °F 17.1 °F 54% 30.22 in 10.0 mi NNE 6.9 mph - N/A   Partly Cloudy
11:51 PM 32.0 °F 24.8 °F 17.1 °F 54% 30.25 in 10.0 mi North 8.1 mph - N/A   Overcast